Date,TemperatureHighF,TemperatureAvgF,TemperatureLowF,DewpointHighF,DewpointAvgF,DewpointLowF,HumidityHigh,HumidityAvg,HumidityLow,PressureMaxIn,PressureMinIn,WindSpeedMaxMPH,WindSpeedAvgMPH,GustSpeedMaxMPH,PrecipitationSumIn
2013-1-1,35.0,22.1,11.0,18.0,10.1,3.0,76,61,37,0.00,40.00,7,5,20,0.00
2013-1-2,26.0,21.8,15.0,18.0,12.5,6.0,78,67,50,0.00,40.00,11,6,26,0.00
2013-1-3,47.0,22.2,2.0,9.0,2.5,-5.0,76,48,12,0.00,40.00,9,6,15,0.00
2013-1-4,52.0,30.8,19.0,9.0,4.1,0.0,48,34,15,0.00,40.00,10,6,15,0.00
2013-1-5,38.0,29.7,22.0,16.0,12.1,6.0,66,48,35,0.00,40.00,11,7,24,0.00
2013-1-6,53.0,32.7,12.0,11.0,4.8,-4.0,62,35,12,0.00,40.00,11,6,29,0.00
2013-1-7,48.0,31.9,22.0,20.0,16.2,13.0,76,54,30,0.00,40.00,7,4,14,0.00
2013-1-8,42.0,34.7,23.0,25.0,16.9,11.0,72,49,33,0.00,40.00,14,6,36,0.00
2013-1-9,62.0,43.8,23.0,19.0,15.3,9.0,63,34,16,0.00,40.00,12,6,31,0.00
2013-1-10,55.0,51.4,41.0,15.0,8.0,3.0,34,18,12,0.00,40.00,13,7,31,0.00
2013-1-11,38.0,16.3,3.0,23.0,10.1,-7.0,96,77,40,0.00,40.00,8,4,24,0.00
2013-1-12,11.0,5.8,2.0,3.0,-2.6,-8.0,82,67,61,0.00,40.00,10,5,26,0.00
2013-1-13,17.0,6.7,2.0,2.0,-3.2,-6.0,76,64,50,0.00,40.00,6,3,16,0.00
2013-1-14,20.0,9.4,3.0,-2.0,-4.8,-8.0,68,53,37,0.00,40.00,8,5,21,0.00
2013-1-15,37.0,24.8,1.0,27.0,13.1,-10.0,76,61,45,0.00,40.00,13,7,29,0.10
2013-1-16,44.0,37.0,28.0,26.0,18.0,15.0,67,47,32,0.00,40.00,13,7,27,0.01
2013-1-17,49.0,35.5,27.0,19.0,15.9,13.0,62,46,28,0.00,40.00,7,5,19,0.01
2013-1-18,54.0,43.3,32.0,14.0,9.2,6.0,47,25,14,0.00,40.00,13,5,23,0.00
2013-1-19,46.0,33.6,21.0,22.0,16.6,13.0,87,53,27,0.00,40.00,12,5,28,0.00
2013-1-20,36.0,20.1,7.0,19.0,11.4,3.0,89,71,35,0.00,40.00,10,5,24,0.00
2013-1-21,21.0,10.7,5.0,11.0,5.4,0.0,89,79,64,0.00,40.00,5,2,10,0.00
2013-1-22,49.0,33.5,9.0,12.0,6.8,3.0,84,38,16,0.00,40.00,9,4,25,0.00
2013-1-23,32.0,21.1,12.0,13.0,9.1,3.0,86,62,29,0.00,40.00,7,4,12,0.00
2013-1-24,60.0,34.5,12.0,24.0,14.2,7.0,89,51,13,0.00,40.00,10,5,27,0.00
2013-1-25,51.0,33.2,23.0,22.0,19.2,16.0,76,58,31,0.00,40.00,8,5,12,0.00
2013-1-26,54.0,38.6,28.0,22.0,21.1,17.0,69,52,28,0.00,40.00,7,4,12,0.00
2013-1-27,54.0,36.4,26.0,30.0,24.4,20.0,93,64,37,0.00,40.00,8,5,13,0.00
2013-1-28,29.0,26.4,24.0,26.0,24.0,20.0,97,91,82,0.00,40.00,4,2,8,0.00
2013-1-29,32.0,21.4,7.0,21.0,10.9,-3.0,90,66,39,0.00,40.00,10,5,23,0.08
2013-1-30,23.0,12.6,1.0,14.0,4.2,-5.0,86,70,50,0.00,40.00,9,3,21,0.02
2013-1-31,27.0,10.5,5.0,17.0,1.3,-6.0,81,66,46,0.00,40.00,8,4,23,0.00
2013-2-1,42.0,34.1,27.0,26.0,22.9,18.0,75,64,50,0.00,40.00,10,4,25,0.02
2013-2-2,41.0,34.4,29.0,26.0,18.8,15.0,86,54,35,0.00,40.00,16,8,38,0.02
2013-2-3,52.0,38.4,29.0,19.0,14.2,6.0,64,40,16,0.00,40.00,13,6,29,0.00
2013-2-4,46.0,34.4,26.0,19.0,17.1,14.0,62,50,30,0.00,40.00,13,5,27,0.00
2013-2-5,46.0,38.8,35.0,26.0,21.7,18.0,56,50,36,0.00,40.00,7,4,15,0.00
2013-2-6,48.0,35.7,27.0,23.0,20.0,18.0,70,54,34,0.00,40.00,10,6,19,0.00
2013-2-7,49.0,34.8,27.0,18.0,14.3,8.0,69,45,20,0.00,40.00,7,4,18,0.00
2013-2-8,48.0,34.6,25.0,19.0,14.0,8.0,68,44,21,0.00,40.00,8,4,19,0.00
2013-2-9,39.0,29.0,22.0,18.0,15.0,12.0,77,56,36,0.00,40.00,9,6,21,0.00
2013-2-10,27.0,21.8,13.0,21.0,13.8,4.0,85,71,56,0.00,40.00,15,9,34,0.00
2013-2-11,32.0,20.1,10.0,14.0,4.7,-2.0,68,52,34,0.00,40.00,6,4,13,0.00
2013-2-12,45.0,31.4,20.0,17.0,9.4,-2.0,55,40,30,0.00,40.00,8,6,18,0.00
2013-2-13,42.0,33.8,29.0,30.0,20.0,15.0,93,58,39,0.00,40.00,14,7,35,0.01
2013-2-14,28.0,22.8,14.0,17.0,11.4,2.0,73,62,47,0.00,40.00,15,8,34,0.01
2013-2-15,29.0,20.9,10.0,13.0,5.3,0.0,78,52,30,0.00,40.00,10,5,22,0.00
2013-2-16,50.0,39.3,26.0,23.0,20.8,15.0,69,49,32,0.00,40.00,10,7,28,0.00
2013-2-17,54.0,37.0,28.0,20.0,17.4,12.0,69,48,21,0.00,40.00,11,6,24,0.00
2013-2-18,29.0,23.7,14.0,17.0,10.6,4.0,66,57,44,0.00,40.00,12,8,29,0.00
2013-2-19,28.0,14.9,2.0,14.0,6.5,-4.0,81,69,53,0.00,40.00,8,4,22,0.00
2013-2-20,32.0,21.6,15.0,15.0,11.6,7.0,85,66,41,0.00,40.00,8,6,22,0.00
2013-2-21,27.0,19.4,17.0,19.0,15.7,13.0,93,86,72,0.00,40.00,6,3,10,0.04
2013-2-22,38.0,24.8,16.0,21.0,12.6,7.0,90,64,32,0.00,40.00,7,4,19,0.02
2013-2-23,44.0,28.2,14.0,23.0,9.6,3.0,74,48,26,0.00,40.00,9,5,15,0.02
2013-2-24,32.0,26.9,19.0,25.0,20.1,11.0,91,75,65,0.00,40.00,9,6,20,0.01
2013-2-25,49.0,27.5,8.0,11.0,3.7,-1.0,77,44,13,0.00,40.00,8,6,17,0.01
2013-2-26,37.0,27.3,18.0,25.0,15.9,6.0,73,62,44,0.00,40.00,10,8,26,0.00
2013-2-27,36.0,27.8,20.0,15.0,12.1,10.0,72,53,35,0.00,40.00,12,6,23,0.00
2013-2-28,38.0,27.6,17.0,23.0,15.7,8.0,83,62,31,0.00,40.00,7,5,24,0.00
2013-3-1,43.0,33.8,24.0,28.0,13.9,4.0,74,47,22,0.00,40.00,7,4,15,0.00
2013-3-2,57.0,45.5,37.0,28.0,25.3,22.0,70,47,27,0.00,40.00,9,5,24,0.00
2013-3-3,55.0,44.6,30.0,27.0,24.6,19.0,85,47,29,0.00,40.00,12,4,30,0.00
2013-3-4,29.0,21.9,15.0,19.0,5.7,-2.0,66,50,35,0.00,40.00,14,10,39,0.00
2013-3-5,32.0,20.4,9.0,9.0,2.7,-3.0,60,47,30,0.00,40.00,8,4,28,0.00
2013-3-6,46.0,30.9,16.0,19.0,12.4,4.0,66,48,31,0.00,40.00,8,4,16,0.00
2013-3-7,56.0,40.5,30.0,24.0,20.7,18.0,69,47,28,0.00,40.00,9,4,15,0.00
2013-3-8,46.0,33.1,26.0,27.0,23.7,22.0,86,69,46,0.00,40.00,6,4,13,0.00
2013-3-9,38.0,31.3,24.0,25.0,19.1,8.0,86,63,32,0.00,40.00,18,9,42,0.00
2013-3-10,42.0,29.8,17.0,16.0,2.2,-15.0,70,37,9,0.00,40.00,12,6,30,0.00
2013-3-11,43.0,34.5,27.0,25.0,14.7,1.0,65,45,27,0.00,40.00,13,7,39,0.00
2013-3-12,42.0,27.9,19.0,9.0,-0.3,-6.0,49,31,13,0.00,40.00,11,7,39,0.00
2013-3-13,61.0,46.1,27.0,23.0,17.7,0.0,47,33,22,0.00,40.00,10,5,21,0.00
2013-3-14,69.0,52.4,38.0,27.0,23.4,21.0,57,35,17,0.00,40.00,9,5,18,0.00
2013-3-15,66.0,51.3,38.0,27.0,22.5,18.0,55,35,17,0.00,40.00,11,7,26,0.00
2013-3-16,35.0,29.9,24.0,32.0,27.1,23.0,97,90,70,0.00,40.00,4,2,14,0.14
2013-3-17,50.0,34.0,26.0,33.0,25.5,11.0,96,73,43,0.00,40.00,15,7,36,0.24
2013-3-18,37.0,27.6,19.0,13.0,4.0,-8.0,58,39,14,0.00,40.00,12,7,32,0.05
2013-3-19,35.0,26.8,16.0,14.0,9.6,2.0,64,49,30,0.00,40.00,9,6,25,0.00
2013-3-20,48.0,28.1,10.0,15.0,7.9,2.0,71,46,20,0.00,40.00,10,5,20,0.00
2013-3-21,39.0,28.4,20.0,23.0,17.5,12.0,93,65,48,0.00,40.00,7,4,14,0.00
2013-3-22,38.0,26.3,20.0,25.0,20.9,14.0,93,81,50,0.00,40.00,7,4,16,0.04
2013-3-23,32.0,19.3,8.0,14.0,7.3,3.0,84,62,30,0.00,40.00,8,4,18,0.36
2013-3-24,24.0,11.5,1.0,5.0,-0.2,-5.0,81,61,39,0.00,40.00,11,6,24,0.02
2013-3-25,33.0,17.1,0.0,15.0,4.5,-7.0,85,60,33,0.00,40.00,8,4,11,0.00
2013-3-26,47.0,31.2,11.0,18.0,10.1,1.0,85,44,19,0.00,40.00,9,5,13,0.00
2013-3-27,51.0,34.8,21.0,20.0,13.1,8.0,63,44,25,0.00,40.00,9,7,17,0.00
2013-3-28,59.0,49.8,35.0,26.0,23.6,20.0,70,38,23,0.00,40.00,6,4,12,0.00
2013-3-29,65.0,47.5,30.0,31.0,24.6,19.0,78,46,17,0.00,40.00,8,6,20,0.00
2013-3-30,52.0,42.3,36.0,38.0,29.6,-99.9,88,65,36,0.00,40.00,8,5,24,0.07
2013-3-31,52.0,37.3,27.0,28.0,24.2,17.0,90,62,38,0.00,40.00,8,5,19,0.01
2013-4-1,49.0,34.2,22.0,25.0,21.0,17.0,95,63,34,0.00,40.00,8,4,18,0.00
2013-4-2,56.0,39.3,23.0,22.0,19.9,17.0,81,50,26,0.00,40.00,8,5,16,0.00
2013-4-3,67.0,50.6,34.0,34.0,24.0,15.0,68,39,14,0.00,40.00,9,7,22,0.00
2013-4-4,54.0,40.7,31.0,28.0,23.8,17.0,85,55,28,0.00,40.00,8,4,17,0.00
2013-4-5,68.0,48.7,32.0,36.0,27.2,17.0,68,46,25,0.00,40.00,7,5,26,0.00
2013-4-6,60.0,50.7,41.0,35.0,27.5,22.0,71,44,23,0.00,40.00,10,6,26,0.00
2013-4-7,55.0,44.7,36.0,44.0,33.1,24.0,98,66,38,0.00,40.00,7,4,15,0.13
2013-4-8,40.0,30.5,14.0,38.0,27.7,10.0,99,90,73,0.00,40.00,9,6,21,0.11
2013-4-9,15.0,11.0,8.0,10.0,5.7,2.0,85,79,71,0.00,40.00,9,7,25,0.01
2013-4-10,28.0,18.9,11.0,24.0,15.4,7.0,89,86,83,0.00,40.00,7,5,17,0.27
2013-4-11,35.0,21.6,7.0,29.0,17.7,3.0,95,85,79,0.00,40.00,7,4,18,0.06
2013-4-12,42.0,32.1,23.0,30.0,22.7,18.0,93,69,46,0.00,40.00,8,5,26,0.01
2013-4-13,53.0,35.4,19.0,33.0,25.3,15.0,98,69,42,0.00,40.00,7,4,12,0.01
2013-4-14,39.0,32.7,19.0,34.0,20.0,6.0,98,61,39,0.00,40.00,14,8,33,0.00
2013-4-15,37.0,24.2,16.0,20.0,11.7,4.0,89,61,32,0.00,40.00,9,6,23,0.00
2013-4-16,27.0,21.5,16.0,20.0,16.3,11.0,92,80,72,0.00,40.00,8,3,13,0.07
2013-4-17,27.0,22.8,17.0,21.0,18.6,12.0,92,84,75,0.00,40.00,7,4,15,0.08
2013-4-18,37.0,26.0,17.0,15.0,9.2,4.0,84,53,26,0.00,40.00,10,6,25,0.29
2013-4-19,38.0,31.8,28.0,30.0,26.3,13.0,96,80,52,0.00,40.00,7,4,19,0.02
2013-4-20,52.0,39.2,28.0,37.0,31.4,26.0,95,76,50,0.00,40.00,6,4,16,0.10
2013-4-21,49.0,37.5,30.0,37.0,32.7,28.0,97,84,45,0.00,40.00,6,4,20,0.24
2013-4-22,29.0,23.9,16.0,28.0,20.2,10.0,96,86,74,0.00,40.00,8,6,19,0.29
2013-4-23,38.0,23.9,9.0,22.0,13.8,4.0,84,67,45,0.00,40.00,7,4,13,0.01
2013-4-24,41.0,32.9,23.0,24.0,18.0,14.0,71,55,36,0.00,40.00,13,6,28,0.00
2013-4-25,64.0,48.1,26.0,24.0,16.9,10.0,79,35,12,0.00,40.00,8,5,18,0.00
2013-4-26,66.0,49.1,32.0,29.0,24.1,21.0,66,42,20,0.00,40.00,9,6,14,0.00
2013-4-27,74.0,55.6,36.0,31.0,25.3,22.0,65,36,16,0.00,40.00,10,6,20,0.00
2013-4-28,65.0,52.9,43.0,41.0,31.8,25.0,92,47,31,0.00,40.00,10,7,21,0.03
2013-4-29,70.0,56.0,43.0,40.0,32.2,21.0,87,48,16,0.00,40.00,8,6,22,0.03
2013-4-30,50.0,39.8,31.0,33.0,24.3,11.0,96,60,22,0.00,40.00,10,5,24,0.03
2013-5-1,42.0,33.0,25.0,25.0,15.9,7.0,82,52,25,0.00,40.00,9,5,17,0.09
2013-5-2,48.0,35.9,23.0,23.0,17.0,10.0,70,48,25,0.00,40.00,7,5,16,0.01
2013-5-3,58.0,43.0,28.0,21.0,18.1,15.0,67,40,21,0.00,40.00,8,5,14,0.00
2013-5-4,53.0,41.2,28.0,21.0,15.3,12.0,66,39,19,0.00,40.00,8,5,17,0.00
2013-5-5,59.0,43.5,28.0,23.0,17.5,12.0,60,39,20,0.00,40.00,7,5,16,0.00
2013-5-6,66.0,49.8,31.0,26.0,23.6,21.0,67,40,22,0.00,40.00,9,6,21,0.00
2013-5-7,71.0,53.3,36.0,39.0,32.4,25.0,64,48,27,0.00,40.00,8,5,18,0.00
2013-5-8,68.0,55.5,40.0,41.0,36.0,32.0,80,51,26,0.00,40.00,9,6,19,0.00
2013-5-9,60.0,50.5,41.0,47.0,39.0,34.0,95,66,47,0.00,40.00,7,4,16,0.01
2013-5-10,69.0,51.3,38.0,46.0,33.4,-99.9,96,62,20,0.00,40.00,10,6,31,0.02
2013-5-11,62.0,47.0,32.0,31.0,26.4,-99.9,73,48,30,0.00,40.00,8,5,16,0.02
2013-5-12,75.0,57.6,39.0,38.0,33.2,28.0,71,43,24,0.00,40.00,9,5,15,0.00
2013-5-13,86.0,71.9,58.0,42.0,38.2,33.0,55,31,17,0.00,40.00,9,5,19,0.00
2013-5-14,77.0,68.7,56.0,46.0,38.1,32.0,47,33,24,0.00,40.00,10,6,19,0.00
2013-5-15,73.0,59.0,43.0,40.0,36.4,32.0,69,45,27,0.00,40.00,9,5,21,0.00
2013-5-16,75.0,58.4,53.0,53.0,32.1,-99.9,93,60,38,0.00,40.00,9,5,24,0.18
2013-5-17,73.0,60.7,46.0,55.0,47.0,-99.9,95,71,52,0.00,40.00,7,5,16,0.18
2013-5-18,68.0,56.2,50.0,54.0,49.7,45.0,94,79,59,0.00,40.00,8,4,23,0.14
2013-5-19,57.0,51.9,48.0,51.0,47.9,41.0,93,86,75,0.00,40.00,9,5,21,0.21
2013-5-20,52.0,47.5,41.0,41.0,39.1,37.0,91,73,60,0.00,40.00,16,11,41,0.04
2013-5-21,50.0,44.8,40.0,40.0,37.5,36.0,92,76,61,0.00,40.00,13,8,33,0.13
2013-5-22,52.0,45.9,42.0,43.0,40.1,37.0,90,80,69,0.00,40.00,7,4,16,0.02
2013-5-23,63.0,52.9,43.0,44.0,39.9,34.0,91,64,44,0.00,40.00,12,9,29,0.00
2013-5-24,80.0,62.4,52.0,53.0,47.9,35.0,86,62,20,0.00,40.00,13,7,33,0.00
2013-5-25,79.0,65.4,49.0,56.0,50.9,46.0,88,63,39,0.00,40.00,11,7,26,0.00
2013-5-26,74.0,60.2,50.0,57.0,54.3,49.0,99,83,51,0.00,40.00,7,4,19,0.04
2013-5-27,75.0,58.2,49.0,62.0,55.0,46.0,100,90,56,0.00,40.00,8,4,20,0.15
2013-5-28,72.0,57.5,42.0,49.0,42.1,35.0,92,60,29,0.00,40.00,10,6,20,0.05
2013-5-29,69.0,55.8,48.0,56.0,48.3,45.0,97,78,46,0.00,40.00,8,4,24,1.03
2013-5-30,59.0,52.1,48.0,50.0,43.8,36.0,98,75,50,0.00,40.00,12,7,31,0.70
2013-5-31,53.0,47.6,44.0,40.0,36.3,35.0,85,65,54,0.00,40.00,13,9,38,0.01
2013-6-1,61.0,50.5,41.0,40.0,33.9,-99.9,85,58,33,0.00,40.00,12,8,30,0.01
2013-6-2,71.0,55.6,38.0,48.0,42.1,34.0,92,63,41,0.00,40.00,9,6,20,0.00
2013-6-3,71.0,59.3,48.0,54.0,44.9,33.0,93,61,25,0.00,40.00,9,5,17,0.00
2013-6-4,60.0,52.7,44.0,42.0,34.2,28.0,68,50,35,0.00,40.00,8,5,21,0.00
2013-6-5,59.0,48.4,40.0,40.0,36.8,33.0,79,65,48,0.00,40.00,8,4,21,0.00
2013-6-6,69.0,54.1,37.0,47.0,41.1,35.0,92,64,45,0.00,40.00,8,4,14,0.00
2013-6-7,78.0,61.9,47.0,52.0,45.3,40.0,90,58,33,0.00,40.00,10,6,25,0.27
2013-6-8,68.0,59.7,51.0,51.0,44.5,37.0,96,61,33,0.00,40.00,14,8,34,0.45
2013-6-9,75.0,63.0,47.0,50.0,44.5,37.0,79,53,33,0.00,40.00,8,6,18,0.05
2013-6-10,84.0,70.9,61.0,59.0,52.1,44.0,79,53,29,0.00,40.00,9,5,18,0.00
2013-6-11,70.0,62.8,54.0,61.0,56.1,51.0,97,79,60,0.00,40.00,9,4,24,0.19
2013-6-12,63.0,57.0,50.0,55.0,50.8,48.0,98,81,66,0.00,40.00,8,4,17,0.20
2013-6-13,72.0,61.4,49.0,54.0,49.6,45.0,93,67,51,0.00,40.00,10,6,22,0.01
2013-6-14,76.0,68.1,58.0,55.0,48.7,44.0,80,52,36,0.00,40.00,10,6,25,0.00
2013-6-15,73.0,62.3,54.0,47.0,42.8,38.0,71,51,33,0.00,40.00,9,4,18,0.00
2013-6-16,73.0,62.8,49.0,57.0,49.2,44.0,85,63,43,0.00,40.00,9,5,19,0.00
2013-6-17,69.0,58.3,52.0,55.0,51.0,48.0,97,78,52,0.00,40.00,7,4,14,0.29
2013-6-18,79.0,64.8,49.0,59.0,52.3,46.0,97,67,42,0.00,40.00,9,5,22,0.01
2013-6-19,80.0,70.8,58.0,61.0,53.5,44.0,78,55,40,0.00,40.00,12,7,27,0.00
2013-6-20,79.0,69.5,61.0,60.0,47.5,35.0,87,52,21,0.00,40.00,9,6,24,0.04
2013-6-22,72.0,62.5,51.0,56.0,53.6,46.0,96,75,55,0.00,40.00,8,6,30,0.30
2013-6-23,73.0,61.0,47.0,52.0,46.4,38.0,90,62,32,0.00,40.00,9,5,18,0.28
2013-6-24,79.0,69.0,60.0,61.0,52.4,41.0,86,57,38,0.00,40.00,8,4,16,0.03
2013-6-25,82.0,72.7,61.0,52.0,44.7,35.0,71,38,25,0.00,40.00,9,6,27,0.03
2013-6-26,84.0,70.7,55.0,56.0,51.5,43.0,80,54,24,0.00,40.00,7,4,14,0.00
2013-6-27,84.0,71.2,56.0,56.0,52.1,47.0,83,54,31,0.00,40.00,7,5,18,0.00
2013-6-28,83.0,71.2,57.0,51.0,47.7,42.0,73,46,28,0.00,40.00,8,6,18,0.00
2013-6-29,77.0,65.9,53.0,54.0,48.0,39.0,85,56,32,0.00,40.00,10,6,23,0.00
2013-6-30,77.0,64.4,50.0,51.0,46.7,42.0,78,55,38,0.00,40.00,7,4,15,0.00
2013-7-1,76.0,65.0,54.0,60.0,50.5,45.0,84,61,44,0.00,40.00,7,3,15,0.04
2013-7-2,80.0,66.8,52.0,52.0,47.8,45.0,81,54,31,0.00,40.00,8,4,16,0.03
2013-7-3,88.0,73.2,55.0,48.0,45.1,41.0,70,41,22,0.00,40.00,8,5,18,0.00
2013-7-4,82.0,68.8,60.0,62.0,51.5,43.0,86,56,33,0.00,40.00,8,5,34,0.05
2013-7-5,84.0,71.0,64.0,63.0,55.8,52.0,96,61,34,0.00,40.00,8,4,16,0.14
2013-7-6,81.0,67.0,56.0,64.0,57.5,51.0,96,76,38,0.00,40.00,10,5,22,1.05
2013-7-7,82.0,67.6,58.0,61.0,57.2,52.0,92,71,43,0.00,40.00,7,5,21,0.09
2013-7-8,82.0,66.8,59.0,62.0,58.0,54.0,93,76,44,0.00,40.00,13,5,35,0.36
2013-7-9,79.0,68.5,57.0,57.0,52.7,48.0,83,59,38,0.00,40.00,7,5,31,0.11
2013-7-10,88.0,70.3,53.0,64.0,54.9,47.0,94,62,31,0.00,40.00,9,4,22,0.06
2013-7-11,94.0,79.7,65.0,63.0,56.6,53.0,76,48,26,0.00,40.00,10,6,24,0.01
2013-7-12,83.0,75.7,62.0,62.0,55.3,51.0,97,51,37,0.00,40.00,14,6,30,0.05
2013-7-13,88.0,72.9,58.0,65.0,61.2,57.0,98,70,42,0.00,40.00,8,5,17,0.05
2013-7-14,73.0,63.9,56.0,62.0,58.2,56.0,100,82,67,0.00,40.00,7,4,19,0.00
2013-7-15,82.0,69.8,58.0,66.0,60.9,55.0,100,77,51,0.00,40.00,10,5,21,0.01
2013-7-16,89.0,82.1,70.0,55.0,52.6,50.0,58,38,28,0.00,40.00,8,6,18,0.00
2013-7-17,89.0,76.9,66.0,61.0,55.2,52.0,67,49,33,0.00,40.00,9,5,19,0.00
2013-7-18,89.0,76.6,66.0,67.0,57.8,53.0,83,54,32,0.00,40.00,8,5,18,0.02
2013-7-19,84.0,69.9,58.0,61.0,57.1,52.0,97,66,36,0.00,40.00,8,5,16,0.16
2013-7-20,79.0,68.2,60.0,68.0,61.1,55.0,99,80,57,0.00,40.00,7,4,19,0.61
2013-7-21,88.0,72.7,61.0,61.0,58.3,48.0,98,64,35,0.00,40.00,7,5,17,0.01
2013-7-22,83.0,70.5,59.0,59.0,53.8,48.0,94,59,35,0.00,40.00,8,5,18,0.05
2013-7-23,78.0,66.7,55.0,64.0,59.2,53.0,98,78,58,0.00,40.00,6,4,15,0.29
2013-7-24,82.0,68.8,56.0,59.0,55.9,52.0,98,67,41,0.00,40.00,8,6,13,0.01
2013-7-25,77.0,65.3,54.0,61.0,54.2,48.0,100,71,41,0.00,40.00,11,5,28,0.30
2013-7-26,68.0,58.6,49.0,53.0,49.1,44.0,99,72,57,0.00,40.00,5,3,13,0.12
2013-7-27,70.0,57.3,44.0,53.0,48.2,43.0,97,73,55,0.00,40.00,9,4,18,0.04
2013-7-28,71.0,61.2,50.0,61.0,55.1,49.0,96,81,63,0.00,40.00,7,4,15,0.01
2013-7-29,76.0,62.6,56.0,58.0,55.2,53.0,95,79,53,0.00,40.00,6,4,12,0.01
2013-7-30,83.0,67.8,56.0,64.0,57.0,51.0,98,72,33,0.00,40.00,9,4,21,0.01
2013-7-31,78.0,67.5,56.0,60.0,51.9,47.0,99,59,44,0.00,40.00,8,4,15,0.01
2013-8-1,79.0,66.4,53.0,57.0,53.4,49.0,87,65,41,0.00,40.00,8,5,14,0.00
2013-8-2,74.0,62.6,53.0,60.0,55.0,51.0,99,79,49,0.00,40.00,7,4,21,0.00
2013-8-3,76.0,65.7,57.0,61.0,58.8,56.0,100,80,57,0.00,40.00,9,4,23,0.59
2013-8-4,83.0,70.4,60.0,65.0,61.6,59.0,100,77,51,0.00,40.00,6,4,23,0.02
2013-8-5,81.0,66.1,56.0,65.0,58.8,53.0,98,79,58,0.00,40.00,7,5,21,0.38
2013-8-6,77.0,65.3,55.0,57.0,52.8,49.0,98,68,39,0.00,40.00,8,5,14,0.36
2013-8-7,77.0,63.5,53.0,59.0,53.6,49.0,89,72,50,0.00,40.00,8,5,16,0.10
2013-8-8,74.0,64.7,55.0,57.0,53.5,46.0,83,68,52,0.00,40.00,7,4,17,0.04
2013-8-9,74.0,62.5,55.0,59.0,53.4,46.0,98,74,50,0.00,40.00,6,4,17,0.22
2013-8-10,77.0,66.2,56.0,62.0,58.3,55.0,97,77,60,0.00,40.00,8,4,14,0.04
2013-8-11,76.0,63.3,58.0,63.0,59.3,50.0,100,88,64,0.00,40.00,6,3,15,0.21
2013-8-12,79.0,63.1,51.0,63.0,54.9,47.0,95,77,48,0.00,40.00,8,4,13,0.01
2013-8-13,74.0,62.5,54.0,62.0,58.3,52.0,100,87,64,0.00,40.00,7,3,14,0.25
2013-8-14,74.0,61.3,53.0,62.0,55.0,50.0,96,81,51,0.00,40.00,7,4,16,0.27
2013-8-15,77.0,57.6,55.0,63.0,39.8,-99.9,97,72,56,0.00,40.00,9,4,28,0.02
2013-8-16,83.0,68.2,56.0,61.0,55.5,-99.9,98,69,44,0.00,40.00,7,4,11,0.01
2013-8-17,91.0,73.2,61.0,62.0,53.4,-99.9,83,55,27,0.00,40.00,9,5,14,0.00
2013-8-18,82.0,70.4,60.0,62.0,57.1,53.0,79,64,43,0.00,40.00,7,5,16,0.01
2013-8-19,87.0,69.3,57.0,57.0,42.9,-99.9,82,54,31,0.00,40.00,8,6,16,0.01
2013-8-20,94.0,72.3,61.0,58.0,51.5,-99.9,74,53,25,0.00,40.00,8,5,15,0.00
2013-8-21,77.0,67.0,60.0,57.0,52.3,49.0,78,60,41,0.00,40.00,7,4,18,0.00
2013-8-22,81.0,67.7,53.0,59.0,55.4,49.0,87,67,43,0.00,40.00,8,5,16,0.00
2013-8-23,87.0,73.5,62.0,66.0,59.9,56.0,84,64,42,0.00,40.00,9,5,19,0.00
2013-8-24,91.0,77.7,67.0,57.0,48.4,-99.9,69,39,24,0.00,40.00,9,5,22,0.00
2013-8-25,92.0,73.1,59.0,58.0,53.6,50.0,72,53,30,0.00,40.00,9,5,17,0.00
2013-8-26,92.0,76.2,65.0,57.0,53.0,44.0,73,49,19,0.00,40.00,8,5,16,0.00
2013-8-27,95.0,72.4,60.0,53.0,51.4,48.0,73,52,21,0.00,40.00,9,5,15,0.00
2013-8-28,87.0,80.7,76.0,68.0,63.5,44.0,67,56,40,0.00,40.00,9,6,23,0.00
2013-8-29,92.0,80.1,67.0,54.0,48.3,43.0,62,34,22,0.00,40.00,9,6,20,0.00
2013-8-30,91.0,74.0,60.0,65.0,56.4,52.0,77,56,32,0.00,40.00,8,5,19,0.00
2013-8-31,85.0,72.5,59.0,57.0,46.1,-99.9,64,42,25,0.00,40.00,10,6,25,0.00
2013-9-1,82.0,64.2,46.0,46.0,42.1,38.0,73,48,28,0.00,40.00,7,5,16,0.00
2013-9-2,91.0,73.2,53.0,52.0,47.0,42.0,73,44,21,0.00,40.00,9,5,17,0.00
2013-9-3,88.0,76.5,66.0,57.0,54.3,51.0,73,48,28,0.00,40.00,8,5,16,0.00
2013-9-4,86.0,71.3,61.0,65.0,58.4,54.0,97,67,39,0.00,40.00,7,5,14,0.08
2013-9-5,92.0,74.0,60.0,63.0,60.5,56.0,99,68,35,0.00,40.00,7,4,13,0.08
2013-9-6,90.0,74.4,64.0,62.0,56.7,52.0,76,56,28,0.00,40.00,10,5,25,0.00
2013-9-7,92.0,74.1,60.0,60.0,53.0,-99.9,80,53,29,0.00,40.00,9,5,20,0.00
2013-9-8,82.0,66.9,60.0,65.0,61.1,58.0,100,83,55,0.00,40.00,8,4,25,0.54
2013-9-9,73.0,63.0,56.0,60.0,57.7,55.0,98,84,60,0.00,40.00,6,3,14,0.89
2013-9-10,73.0,61.5,52.0,55.0,52.3,48.0,97,74,48,0.00,40.00,6,4,15,0.01
2013-9-11,81.0,62.1,50.0,51.0,47.2,43.0,92,63,26,0.00,40.00,8,5,13,0.00
2013-9-12,77.0,61.3,47.0,51.0,46.6,43.0,86,61,38,0.00,40.00,8,5,15,0.00
2013-9-13,69.0,57.8,50.0,56.0,52.0,45.0,99,82,60,0.00,40.00,9,5,22,0.00
2013-9-14,78.0,63.4,55.0,57.0,52.6,-99.9,99,73,39,0.00,40.00,12,5,23,0.00
2013-9-15,64.0,54.9,49.0,57.0,50.2,47.0,99,86,58,0.00,40.00,7,4,17,0.06
2013-9-16,67.0,56.9,48.0,54.0,50.1,47.0,97,79,60,0.00,40.00,11,6,25,0.01
2013-9-17,90.0,72.0,54.0,54.0,47.4,38.0,81,48,16,0.00,40.00,9,6,20,0.00
2013-9-18,66.0,62.9,56.0,47.0,44.6,42.0,65,52,45,0.00,40.00,8,6,20,0.00
2013-9-19,62.0,53.0,44.0,42.0,35.4,30.0,73,53,30,0.00,40.00,12,5,23,0.00
2013-9-20,72.0,52.4,37.0,38.0,34.8,32.0,87,56,29,0.00,40.00,7,4,13,0.00
2013-9-21,86.0,61.8,40.0,36.0,30.2,-99.9,72,38,11,0.00,40.00,9,5,15,0.00
2013-9-22,86.0,68.1,50.0,50.0,38.3,32.0,66,36,20,0.00,40.00,10,6,21,0.00
2013-9-23,58.0,53.1,44.0,52.0,47.8,41.0,94,83,66,0.00,40.00,11,5,28,0.38
2013-9-24,73.0,56.1,39.0,41.0,36.8,33.0,89,54,26,0.00,40.00,11,7,24,0.11
2013-9-25,79.0,66.3,55.0,45.0,40.1,35.0,68,40,26,0.00,40.00,13,7,24,0.00
2013-9-26,63.0,54.0,45.0,47.0,41.2,34.0,76,62,49,0.00,40.00,8,5,19,0.00
2013-9-27,44.0,39.5,36.0,37.0,35.1,34.0,97,84,68,0.00,40.00,7,4,17,0.03
2013-9-28,64.0,47.7,34.0,35.0,28.0,-99.9,96,53,25,0.00,40.00,10,5,23,0.01
2013-9-29,74.0,60.7,48.0,34.0,31.0,29.0,57,34,19,0.00,40.00,13,6,30,0.00
2013-9-30,80.0,64.2,50.0,44.0,32.9,31.0,64,34,17,0.00,40.00,13,7,41,0.00
2013-10-1,66.0,58.8,55.0,36.0,33.2,31.0,42,38,33,0.00,40.00,7,4,16,0.00
2013-10-2,62.0,54.8,47.0,36.0,31.6,26.0,54,42,33,0.00,40.00,9,6,24,0.00
2013-10-3,46.0,41.7,32.0,39.0,36.0,31.0,97,81,56,0.00,40.00,10,4,22,0.49
2013-10-4,32.0,29.5,27.0,32.0,28.8,25.0,98,97,95,0.00,40.00,14,9,34,0.49
2013-10-5,39.0,30.6,25.0,28.0,25.8,24.0,95,82,61,0.00,40.00,14,11,33,0.32
2013-10-6,64.0,47.3,36.0,36.0,32.1,28.0,77,58,31,0.00,40.00,9,6,21,0.05
2013-10-7,66.0,47.8,35.0,32.0,28.3,25.0,76,52,23,0.00,40.00,11,7,25,0.00
2013-10-8,65.0,53.4,38.0,36.0,29.6,25.0,73,42,26,0.00,40.00,8,6,18,0.00
2013-10-9,55.0,44.8,36.0,31.0,29.3,26.0,78,56,34,0.00,40.00,7,4,14,0.00
2013-10-10,60.0,45.8,36.0,44.0,38.6,29.0,98,77,54,0.00,40.00,7,4,16,0.01
2013-10-11,45.0,41.8,37.0,45.0,35.6,26.0,100,80,55,0.00,40.00,18,10,43,2.15
2013-10-12,53.0,39.5,31.0,31.0,24.4,-99.9,85,59,29,0.00,40.00,6,4,17,0.01
2013-10-13,56.0,42.3,30.0,41.0,35.5,28.0,96,79,54,0.00,40.00,7,3,15,0.02
2013-10-14,43.0,37.5,30.0,41.0,34.8,26.0,99,90,82,0.00,40.00,11,6,27,0.75
2013-10-15,37.0,32.6,30.0,27.0,24.8,22.0,87,73,59,0.00,40.00,10,7,34,0.01
2013-10-16,54.0,37.9,25.0,25.0,20.0,12.0,78,53,21,0.00,40.00,7,5,11,0.00
2013-10-17,39.0,33.7,29.0,28.0,21.8,14.0,78,63,39,0.00,40.00,9,6,24,0.00
2013-10-18,40.0,33.5,29.0,24.0,20.7,17.0,78,60,42,0.00,40.00,9,5,24,0.00
2013-10-19,57.0,46.2,37.0,28.0,24.0,-99.9,57,44,30,0.00,40.00,9,5,21,0.00
2013-10-20,44.0,39.7,34.0,32.0,29.0,26.0,80,66,54,0.00,40.00,10,6,30,0.00
2013-10-21,51.0,42.2,33.0,35.0,30.1,24.0,71,62,51,0.00,40.00,11,7,28,0.00
2013-10-22,51.0,43.3,39.0,38.0,34.4,32.0,85,71,49,0.00,40.00,9,4,23,0.01
2013-10-23,48.0,43.1,36.0,36.0,33.9,31.0,94,70,55,0.00,40.00,10,5,28,0.00
2013-10-24,47.0,36.4,30.0,37.0,32.8,29.0,98,87,64,0.00,40.00,7,3,12,0.00
2013-10-25,66.0,49.6,33.0,37.0,33.4,28.0,91,58,30,0.00,40.00,9,5,21,0.00
2013-10-26,61.0,44.3,30.0,34.0,25.9,-99.9,74,51,33,0.00,40.00,6,4,16,0.00
2013-10-27,63.0,46.0,34.0,34.0,28.1,22.0,83,52,27,0.00,40.00,10,7,19,0.00
2013-10-28,32.0,23.4,21.0,29.0,20.2,-99.9,96,93,89,0.00,40.00,7,4,17,0.00
2013-10-29,30.0,25.6,22.0,28.0,23.9,20.0,97,94,92,0.00,40.00,3,2,43,0.00
2013-10-30,40.0,32.8,28.0,37.0,31.3,26.0,98,94,85,0.00,40.00,5,3,78,0.20
2013-10-31,48.0,39.8,32.0,32.0,26.0,21.0,90,59,42,0.00,40.00,10,6,25,0.20
2013-11-1,46.0,38.9,33.0,32.0,22.4,15.0,87,53,32,0.00,40.00,15,9,42,0.01
2013-11-2,58.0,41.4,28.0,27.0,20.2,-99.9,70,46,24,0.00,40.00,9,6,19,0.01
2013-11-3,54.0,44.7,35.0,31.0,24.2,18.0,67,47,25,0.00,40.00,10,5,26,0.00
2013-11-4,42.0,32.5,27.0,28.0,21.2,13.0,95,66,32,0.00,40.00,7,3,16,0.00
2013-11-5,29.0,23.9,16.0,24.0,21.0,11.0,94,89,79,0.00,40.00,7,3,12,0.00
2013-11-6,41.0,28.8,16.0,31.0,19.0,11.0,91,68,48,0.00,40.00,8,6,20,0.23
2013-11-7,48.0,36.1,25.0,30.0,23.1,18.0,79,60,36,0.00,40.00,6,4,15,0.06
2013-11-8,51.0,45.3,40.0,28.0,21.9,17.0,52,39,29,0.00,40.00,13,8,34,0.02
2013-11-9,46.0,36.4,27.0,25.0,20.6,-99.9,84,56,39,0.00,40.00,5,3,15,0.00
2013-11-10,62.0,42.3,28.0,31.0,26.6,23.0,93,58,25,0.00,40.00,8,4,19,0.00
2013-11-11,26.0,19.2,15.0,25.0,16.6,12.0,96,89,84,0.00,40.00,6,3,12,0.00
2013-11-12,56.0,31.8,16.0,21.0,14.2,7.0,88,55,14,0.00,40.00,9,6,18,0.04
2013-11-13,60.0,46.9,39.0,34.0,24.4,16.0,76,43,24,0.00,40.00,11,6,15,0.02
2013-11-14,50.0,39.5,30.0,37.0,27.0,21.0,93,65,31,0.00,40.00,6,4,17,0.06
2013-11-15,50.0,35.4,27.0,27.0,24.5,22.0,86,66,40,0.00,40.00,10,4,22,0.00
2013-11-16,44.0,34.6,28.0,27.0,20.5,-99.9,83,60,37,0.00,40.00,10,5,22,0.00
2013-11-17,40.0,32.6,26.0,26.0,16.0,7.0,83,53,28,0.00,40.00,12,6,34,0.00
2013-11-18,56.0,34.6,21.0,20.0,14.8,10.0,65,47,22,0.00,40.00,8,5,14,0.00
2013-11-19,59.0,49.1,36.0,24.0,20.0,16.0,56,33,24,0.00,40.00,10,7,24,0.00
2013-11-20,46.0,30.1,14.0,27.0,19.7,4.0,95,65,46,0.00,40.00,11,6,25,0.00
2013-11-21,16.0,11.3,7.0,5.0,2.3,-6.0,80,67,57,0.00,40.00,7,4,16,0.00
2013-11-22,40.0,22.8,6.0,4.0,-6.1,-20.0,56,31,10,0.00,40.00,9,5,14,0.02
2013-11-23,41.0,25.1,13.0,14.0,4.9,-99.9,68,46,26,0.00,40.00,10,6,19,0.01
2013-11-24,58.0,41.2,35.0,26.0,16.3,0.0,54,37,22,0.00,40.00,11,6,29,0.00
2013-11-25,43.0,34.1,29.0,22.0,16.5,10.0,62,48,36,0.00,40.00,8,5,21,0.00
2013-11-26,33.0,26.8,19.0,17.0,14.6,6.0,85,61,39,0.00,40.00,6,4,15,0.00
2013-11-27,57.0,37.4,25.0,19.0,15.2,11.0,76,45,17,0.00,40.00,10,6,22,0.00
2013-11-28,39.0,28.1,20.0,23.0,16.8,12.0,76,62,50,0.00,40.00,6,4,18,0.00
2013-11-29,59.0,44.0,34.0,25.0,18.0,14.0,50,36,17,0.00,40.00,9,5,16,0.00
2013-11-30,49.0,35.6,28.0,23.0,18.6,-99.9,66,53,34,0.00,40.00,9,5,13,0.00
2013-12-1,50.0,39.1,30.0,25.0,23.3,21.0,73,55,35,0.00,40.00,7,4,13,0.00
2013-12-2,49.0,41.0,31.0,32.0,27.6,23.0,97,61,43,0.00,40.00,5,4,15,0.00
2013-12-3,29.0,16.0,8.0,28.0,12.7,1.0,97,86,75,0.00,40.00,6,4,13,0.00
2013-12-4,9.0,4.0,-1.0,1.0,-7.6,-16.0,74,58,48,0.00,40.00,10,4,26,0.00
2013-12-5,7.0,-3.7,-11.0,-8.0,-14.7,-20.0,73,60,31,0.00,40.00,7,2,15,0.00
2013-12-6,-2.0,-11.2,-17.0,-11.0,-19.8,-26.0,68,64,57,0.00,40.00,6,3,11,0.00
2013-12-7,-3.0,-11.3,-19.0,-10.0,-21.1,-99.9,72,64,55,0.00,40.00,6,3,10,0.00
2013-12-8,12.0,2.4,-3.0,-2.0,-8.0,-14.0,75,62,48,0.00,40.00,8,3,20,0.00
2013-12-9,22.0,11.3,-2.0,9.0,-5.5,-15.0,62,47,25,0.00,40.00,11,7,37,0.00
2013-12-10,29.0,18.9,1.0,16.0,6.8,-5.0,81,60,42,0.00,40.00,10,5,26,0.00
2013-12-11,34.0,19.3,0.0,7.0,1.3,-5.0,78,48,26,0.00,40.00,7,4,17,0.03
2013-12-12,47.0,30.9,21.0,16.0,9.9,2.0,62,42,26,0.00,40.00,9,5,13,0.05
2013-12-13,40.0,30.1,23.0,22.0,17.2,13.0,71,59,42,0.00,40.00,9,6,21,0.01
2013-12-14,40.0,33.9,29.0,21.0,17.2,-99.9,69,52,43,0.00,40.00,8,5,20,0.00
2013-12-15,49.0,43.0,37.0,21.0,18.8,16.0,53,39,27,0.00,40.00,11,6,24,0.00
2013-12-16,48.0,40.4,34.0,21.0,18.1,16.0,55,41,30,0.00,40.00,16,7,34,0.00
2013-12-17,52.0,38.0,23.0,20.0,16.1,12.0,81,44,23,0.00,40.00,8,4,19,0.00
2013-12-18,60.0,43.9,26.0,20.0,16.5,13.0,71,36,18,0.00,40.00,8,4,15,0.00
2013-12-19,25.0,12.2,-1.0,23.0,8.6,-7.0,96,85,76,0.00,40.00,5,3,10,0.00
2013-12-20,31.0,11.4,-2.0,20.0,4.8,-8.0,92,75,52,0.00,40.00,8,3,12,0.19
2013-12-21,25.0,13.2,5.0,17.0,5.8,-99.9,86,75,62,0.00,40.00,7,3,13,0.01
2013-12-22,15.0,8.3,0.0,10.0,2.6,-6.0,88,77,65,0.00,40.00,6,3,12,0.01
2013-12-23,35.0,7.1,-13.0,26.0,-2.4,-20.0,71,65,50,0.00,40.00,7,3,11,0.02
2013-12-24,36.0,32.5,27.0,29.0,21.7,14.0,79,64,47,0.00,40.00,10,6,26,0.03
2013-12-25,37.0,28.1,24.0,14.0,3.1,-99.9,59,42,29,0.00,40.00,8,4,20,0.01
2013-12-26,49.0,39.7,33.0,23.0,16.6,4.0,58,40,26,0.00,40.00,10,4,27,0.00
2013-12-27,61.0,44.3,30.0,26.0,22.5,17.0,66,43,26,0.00,40.00,8,5,18,0.00
2013-12-28,47.0,31.0,6.0,23.0,8.9,-99.9,62,42,25,0.00,40.00,13,8,32,0.00
2013-12-29,31.0,17.2,3.0,18.0,5.0,-4.0,76,60,39,0.00,40.00,7,2,14,0.00
2013-12-30,37.0,31.1,28.0,23.0,18.7,16.0,76,61,43,0.00,40.00,13,7,29,0.00
2013-12-31,39.0,32.1,27.0,28.0,20.6,12.0,89,64,40,0.00,40.00,5,3,17,0.00
2014-1-1,31.0,24.7,18.0,21.0,14.8,10.0,87,67,46,0.00,40.00,8,4,20,0.00
2014-1-2,43.0,29.9,17.0,16.0,13.3,11.0,80,53,31,0.00,40.00,6,3,19,0.00